When you browse on this site, cookies collect data to enhance your experience and personalize the content and advertising you see.
Visit our Privacy Policy to learn more. By continuing to use the site, you agree to this use of cookies and data.
  • In Deutschland
  • Länderverzeichnis
  • Für 7 Tage
  • Wassertemperatur
  • Satellitenkarten
  • Wetterkarte
  • Widgets
  • user-avatar
    Anmelden

    Stündliche Wetter Hrasdan

    Heute, 19 Juli, Freitag

    Zeit Temperatur Niederschläge Wind Luftdruck Luftfeuchtigkeit
    00:00 +17°C° 0 mm 2 m/S 611 mmHg 73%
    01:00 +16°C° 0 mm 2 m/S 611 mmHg 75%
    02:00 +16°C° 0 mm 2 m/S 611 mmHg 77%
    03:00 +15°C° 0 mm 2 m/S 610 mmHg 80%
    04:00 +16°C° 0 mm 2 m/S 611 mmHg 81%
    05:00 +16°C° 0 mm 2 m/S 612 mmHg 81%
    06:00 +18°C° 0 mm 1 m/S 612 mmHg 81%
    07:00 +19°C° 0 mm 2 m/S 613 mmHg 77%
    08:00 +20°C° 0 mm 2 m/S 613 mmHg 73%
    09:00 +23°C° 0 mm 2 m/S 614 mmHg 69%
    10:00 +24°C° 0.1 mm 3 m/S 614 mmHg 66%
    11:00 +24°C° 0.1 mm 3 m/S 614 mmHg 63%
    12:00 +25°C° 0.1 mm 3 m/S 615 mmHg 60%
    13:00 +25°C° 0.2 mm 3 m/S 614 mmHg 60%
    14:00 +25°C° 0.2 mm 3 m/S 614 mmHg 61%
    15:00 +25°C° 0.2 mm 3 m/S 614 mmHg 62%
    16:00 +24°C° 0.1 mm 3 m/S 614 mmHg 67%
    17:00 +22°C° 0.1 mm 4 m/S 613 mmHg 73%
    18:00 +21°C° 0.1 mm 4 m/S 613 mmHg 78%
    19:00 +19°C° 0 mm 4 m/S 613 mmHg 82%
    20:00 +18°C° 0 mm 4 m/S 613 mmHg 86%
    21:00 +17°C° 0 mm 3 m/S 613 mmHg 90%
    22:00 +17°C° 0 mm 3 m/S 614 mmHg 90%
    23:00 +16°C° 0 mm 3 m/S 614 mmHg 91%

    Morgen, 20 Juli, Samstag

    Zeit Temperatur Niederschläge Wind Luftdruck Luftfeuchtigkeit
    00:00 +16°C° 0 mm 3 m/S 614 mmHg 91%
    01:00 +16°C° 0 mm 3 m/S 614 mmHg 91%
    02:00 +16°C° 0 mm 2 m/S 614 mmHg 91%
    03:00 +16°C° 0 mm 2 m/S 614 mmHg 91%
    04:00 +16°C° 0 mm 2 m/S 615 mmHg 91%
    05:00 +16°C° 0 mm 2 m/S 615 mmHg 90%
    06:00 +17°C° 0 mm 2 m/S 615 mmHg 90%
    07:00 +18°C° 0 mm 2 m/S 616 mmHg 84%
    08:00 +19°C° 0 mm 2 m/S 616 mmHg 77%
    09:00 +21°C° 0 mm 2 m/S 617 mmHg 71%
    10:00 +23°C° 0 mm 2 m/S 617 mmHg 69%
    11:00 +24°C° 0 mm 3 m/S 617 mmHg 66%
    12:00 +25°C° 0 mm 3 m/S 617 mmHg 63%
    13:00 +25°C° 0 mm 3 m/S 617 mmHg 63%
    14:00 +26°C° 0 mm 3 m/S 617 mmHg 63%
    15:00 +26°C° 0 mm 3 m/S 617 mmHg 63%
    16:00 +25°C° 0 mm 3 m/S 616 mmHg 67%
    17:00 +24°C° 0 mm 3 m/S 616 mmHg 72%
    18:00 +22°C° 0 mm 3 m/S 616 mmHg 77%
    19:00 +21°C° 0 mm 3 m/S 616 mmHg 80%
    20:00 +20°C° 0 mm 3 m/S 616 mmHg 84%
    21:00 +18°C° 0 mm 3 m/S 616 mmHg 88%
    22:00 +18°C° 0 mm 3 m/S 616 mmHg 86%
    23:00 +17°C° 0 mm 3 m/S 616 mmHg 85%

    übermorgen, 21 Juli, Sonntag

    Zeit Temperatur Niederschläge Wind Luftdruck Luftfeuchtigkeit
    00:00 +17°C° 0 mm 2 m/S 616 mmHg 83%
    01:00 +16°C° 0 mm 2 m/S 616 mmHg 83%
    02:00 +16°C° 0 mm 2 m/S 615 mmHg 82%
    03:00 +16°C° 0 mm 2 m/S 615 mmHg 81%
    04:00 +16°C° 0 mm 2 m/S 615 mmHg 80%
    05:00 +17°C° 0 mm 2 m/S 616 mmHg 79%
    06:00 +17°C° 0 mm 2 m/S 616 mmHg 77%
    07:00 +19°C° 0 mm 2 m/S 617 mmHg 71%
    08:00 +21°C° 0 mm 2 m/S 617 mmHg 65%
    09:00 +24°C° 0 mm 2 m/S 618 mmHg 59%
    10:00 +25°C° 0 mm 2 m/S 618 mmHg 57%
    11:00 +26°C° 0 mm 3 m/S 618 mmHg 55%
    12:00 +27°C° 0 mm 3 m/S 618 mmHg 52%
    13:00 +28°C° 0 mm 3 m/S 618 mmHg 53%
    14:00 +28°C° 0 mm 3 m/S 617 mmHg 55%
    15:00 +28°C° 0 mm 3 m/S 617 mmHg 56%
    16:00 +27°C° 0 mm 3 m/S 616 mmHg 61%
    17:00 +26°C° 0 mm 3 m/S 616 mmHg 66%
    18:00 +25°C° 0 mm 3 m/S 616 mmHg 71%
    19:00 +22°C° 0 mm 3 m/S 616 mmHg 73%
    20:00 +21°C° 0 mm 3 m/S 615 mmHg 74%
    21:00 +19°C° 0 mm 3 m/S 615 mmHg 75%
    22:00 +19°C° 0 mm 3 m/S 615 mmHg 75%
    23:00 +18°C° 0 mm 2 m/S 615 mmHg 75%

    22 Juli, Montag

    Zeit Temperatur Niederschläge Wind Luftdruck Luftfeuchtigkeit
    00:00 +18°C° 0 mm 2 m/S 614 mmHg 75%
    01:00 +17°C° 0 mm 2 m/S 614 mmHg 75%
    02:00 +17°C° 0 mm 2 m/S 614 mmHg 75%
    03:00 +17°C° 0 mm 2 m/S 614 mmHg 75%
    04:00 +17°C° 0 mm 2 m/S 614 mmHg 74%
    05:00 +18°C° 0 mm 2 m/S 614 mmHg 73%
    06:00 +18°C° 0 mm 2 m/S 614 mmHg 72%
    07:00 +20°C° 0 mm 2 m/S 615 mmHg 66%
    08:00 +24°C° 0 mm 2 m/S 616 mmHg 60%
    09:00 +26°C° 0 mm 2 m/S 616 mmHg 54%
    10:00 +27°C° 0 mm 2 m/S 616 mmHg 52%
    11:00 +28°C° 0 mm 2 m/S 616 mmHg 49%
    12:00 +29°C° 0 mm 2 m/S 616 mmHg 47%
    13:00 +29°C° 0 mm 3 m/S 616 mmHg 49%
    14:00 +29°C° 0 mm 3 m/S 616 mmHg 51%
    15:00 +30°C° 0 mm 3 m/S 615 mmHg 52%
    16:00 +28°C° 0.2 mm 3 m/S 615 mmHg 58%
    17:00 +27°C° 0.2 mm 3 m/S 614 mmHg 64%
    18:00 +25°C° 0.2 mm 3 m/S 613 mmHg 70%
    19:00 +24°C° 0 mm 3 m/S 613 mmHg 73%
    20:00 +21°C° 0 mm 3 m/S 613 mmHg 77%
    21:00 +19°C° 0 mm 3 m/S 613 mmHg 80%
    22:00 +19°C° 0 mm 3 m/S 613 mmHg 79%
    23:00 +18°C° 0 mm 2 m/S 612 mmHg 78%

    23 Juli, Dienstag

    Zeit Temperatur Niederschläge Wind Luftdruck Luftfeuchtigkeit
    00:00 +17°C° 0 mm 2 m/S 612 mmHg 77%
    01:00 +17°C° 0 mm 2 m/S 612 mmHg 78%
    02:00 +17°C° 0 mm 2 m/S 612 mmHg 78%
    03:00 +16°C° 0 mm 2 m/S 612 mmHg 79%
    04:00 +17°C° 0 mm 2 m/S 612 mmHg 79%
    05:00 +17°C° 0 mm 2 m/S 612 mmHg 80%
    06:00 +17°C° 0 mm 2 m/S 612 mmHg 81%
    07:00 +19°C° 0 mm 2 m/S 613 mmHg 75%
    08:00 +21°C° 0 mm 2 m/S 613 mmHg 70%
    09:00 +24°C° 0 mm 2 m/S 614 mmHg 65%
    10:00 +25°C° 0 mm 3 m/S 614 mmHg 63%
    11:00 +26°C° 0 mm 3 m/S 614 mmHg 61%
    12:00 +27°C° 0 mm 3 m/S 614 mmHg 59%
    13:00 +27°C° 0.2 mm 3 m/S 613 mmHg 61%
    14:00 +26°C° 0.2 mm 3 m/S 613 mmHg 62%
    15:00 +26°C° 0.2 mm 3 m/S 612 mmHg 64%
    16:00 +25°C° 0.2 mm 3 m/S 612 mmHg 68%
    17:00 +23°C° 0.2 mm 4 m/S 612 mmHg 72%
    18:00 +22°C° 0.2 mm 4 m/S 611 mmHg 76%
    19:00 +21°C° 0 mm 3 m/S 611 mmHg 79%
    20:00 +19°C° 0 mm 3 m/S 611 mmHg 83%
    21:00 +18°C° 0 mm 3 m/S 611 mmHg 86%
    22:00 +18°C° 0 mm 3 m/S 611 mmHg 86%
    23:00 +17°C° 0 mm 2 m/S 611 mmHg 86%

    24 Juli, Mittwoch

    Zeit Temperatur Niederschläge Wind Luftdruck Luftfeuchtigkeit
    00:00 +17°C° 0 mm 2 m/S 611 mmHg 85%
    01:00 +17°C° 0 mm 2 m/S 611 mmHg 85%
    02:00 +16°C° 0 mm 2 m/S 611 mmHg 85%
    03:00 +16°C° 0 mm 1 m/S 611 mmHg 85%
    04:00 +18°C° 0 mm 1 m/S 611 mmHg 83%
    05:00 +18°C° 0 mm 1 m/S 611 mmHg 82%
    06:00 +19°C° 0 mm 1 m/S 612 mmHg 80%
    07:00 +21°C° 0 mm 1 m/S 612 mmHg 73%
    08:00 +23°C° 0 mm 1 m/S 613 mmHg 67%
    09:00 +25°C° 0 mm 1 m/S 614 mmHg 60%
    10:00 +27°C° 0.1 mm 3 m/S 614 mmHg 52%
    11:00 +28°C° 0.1 mm 4 m/S 614 mmHg 44%
    12:00 +29°C° 0.1 mm 5 m/S 614 mmHg 36%
    13:00 +30°C° 0.1 mm 5 m/S 614 mmHg 35%
    14:00 +30°C° 0.1 mm 5 m/S 614 mmHg 34%
    15:00 +32°C° 0.1 mm 5 m/S 614 mmHg 33%
    16:00 +30°C° 0 mm 4 m/S 613 mmHg 40%
    17:00 +28°C° 0 mm 3 m/S 613 mmHg 47%
    18:00 +27°C° 0 mm 3 m/S 612 mmHg 55%
    19:00 +25°C° 0 mm 3 m/S 612 mmHg 61%
    20:00 +23°C° 0 mm 2 m/S 612 mmHg 66%
    21:00 +20°C° 0 mm 2 m/S 612 mmHg 72%
    22:00 +19°C° 0 mm 2 m/S 612 mmHg 71%
    23:00 +19°C° 0 mm 2 m/S 612 mmHg 70%
    Mehr zeigen